When you browse on this site, cookies collect data to enhance your experience and personalize the content and advertising you see.
Visit our Privacy Policy to learn more. By continuing to use the site, you agree to this use of cookies and data.
  • In Hungary
  • List of Countries
  • For 7 days
  • Water Temperature
  • Satellite Maps
  • Weather Map
  • News
  • Weather Widgets
  • user-avatar
    Login

    Hourly Weather Krzydlowiczki

    Today, 16 January, Wednesday

    Time Temperature Precipitation Wind Pressure Humidity
    00:00 +2°C° 0 mm 9 mps 745 mmHg 85%
    01:00 +2°C° 0 mm 8 mps 745 mmHg 84%
    02:00 +3°C° 0.4 mm 7 mps 745 mmHg 85%
    03:00 +3°C° 0.4 mm 7 mps 745 mmHg 87%
    04:00 +4°C° 0.4 mm 7 mps 746 mmHg 88%
    05:00 +4°C° 0.3 mm 7 mps 746 mmHg 87%
    06:00 +4°C° 0.3 mm 7 mps 746 mmHg 86%
    07:00 +4°C° 0 mm 7 mps 747 mmHg 86%
    08:00 +4°C° 0 mm 7 mps 747 mmHg 85%
    09:00 +4°C° 0 mm 7 mps 747 mmHg 83%
    10:00 +4°C° 0 mm 7 mps 747 mmHg 82%
    11:00 +4°C° 0 mm 7 mps 747 mmHg 80%
    12:00 +4°C° 0 mm 7 mps 747 mmHg 79%
    13:00 +4°C° 0 mm 6 mps 747 mmHg 80%
    14:00 +4°C° 0 mm 6 mps 747 mmHg 81%
    15:00 +5°C° 0 mm 5 mps 747 mmHg 81%
    16:00 +5°C° 0 mm 5 mps 747 mmHg 82%
    17:00 +3°C° 0 mm 5 mps 746 mmHg 82%
    18:00 +3°C° 0 mm 5 mps 746 mmHg 83%
    19:00 +3°C° 0 mm 4 mps 746 mmHg 84%
    20:00 +3°C° 0 mm 4 mps 746 mmHg 84%
    21:00 +1°C° 0 mm 4 mps 745 mmHg 84%
    22:00 +1°C° 0 mm 4 mps 745 mmHg 84%
    23:00 +1°C° 0 mm 4 mps 744 mmHg 83%

    Tomorrow, 17 January, Thursday

    Time Temperature Precipitation Wind Pressure Humidity
    00:00 +1°C° 0 mm 4 mps 743 mmHg 81%
    01:00 +1°C° 0 mm 4 mps 743 mmHg 80%
    02:00 +1°C° 0 mm 5 mps 742 mmHg 78%
    03:00 +1°C° 0 mm 5 mps 742 mmHg 76%
    04:00 +1°C° 0 mm 5 mps 741 mmHg 74%
    05:00 +1°C° 0 mm 5 mps 741 mmHg 74%
    06:00 +1°C° 0 mm 5 mps 741 mmHg 74%
    07:00 +1°C° 0 mm 6 mps 741 mmHg 74%
    08:00 +2°C° 0 mm 6 mps 741 mmHg 75%
    09:00 +2°C° 0 mm 6 mps 741 mmHg 76%
    10:00 +3°C° 0 mm 7 mps 742 mmHg 77%
    11:00 +3°C° 0 mm 6 mps 742 mmHg 76%
    12:00 +4°C° 0 mm 6 mps 742 mmHg 75%
    13:00 +4°C° 0 mm 6 mps 742 mmHg 74%
    14:00 +5°C° 0 mm 5 mps 742 mmHg 75%
    15:00 +5°C° 0 mm 5 mps 742 mmHg 76%
    16:00 +4°C° 0 mm 4 mps 742 mmHg 77%
    17:00 +4°C° 0 mm 4 mps 742 mmHg 80%
    18:00 +3°C° 0 mm 4 mps 741 mmHg 83%
    19:00 +3°C° 0 mm 4 mps 741 mmHg 86%
    20:00 +2°C° 0.1 mm 5 mps 741 mmHg 83%
    21:00 +2°C° 0.1 mm 6 mps 742 mmHg 80%
    22:00 +1°C° 0.1 mm 8 mps 742 mmHg 78%
    23:00 +2°C° 0 mm 7 mps 742 mmHg 75%

    Day after tomorrow, 18 January, Friday

    Time Temperature Precipitation Wind Pressure Humidity
    00:00 0°C° 0 mm 7 mps 743 mmHg 73%
    01:00 -1°C° 0 mm 7 mps 744 mmHg 71%
    02:00 -1°C° 0 mm 7 mps 744 mmHg 72%
    03:00 -2°C° 0 mm 7 mps 745 mmHg 73%
    04:00 -2°C° 0 mm 7 mps 745 mmHg 74%
    05:00 -2°C° 0 mm 7 mps 746 mmHg 74%
    06:00 -2°C° 0 mm 7 mps 747 mmHg 74%
    07:00 -2°C° 0 mm 7 mps 747 mmHg 75%
    08:00 -2°C° 0.1 mm 7 mps 749 mmHg 73%
    09:00 -2°C° 0.1 mm 7 mps 750 mmHg 72%
    10:00 -2°C° 0.1 mm 6 mps 751 mmHg 70%
    11:00 -2°C° 0 mm 6 mps 752 mmHg 68%
    12:00 -2°C° 0 mm 6 mps 753 mmHg 65%
    13:00 0°C° 0 mm 5 mps 753 mmHg 63%
    14:00 -1°C° 0 mm 5 mps 754 mmHg 66%
    15:00 -1°C° 0 mm 4 mps 754 mmHg 69%
    16:00 -1°C° 0 mm 3 mps 755 mmHg 72%
    17:00 -1°C° 0 mm 3 mps 755 mmHg 74%
    18:00 -2°C° 0 mm 3 mps 755 mmHg 77%
    19:00 -2°C° 0 mm 3 mps 756 mmHg 79%
    20:00 -2°C° 0 mm 3 mps 756 mmHg 78%
    21:00 -2°C° 0 mm 3 mps 756 mmHg 77%
    22:00 -2°C° 0 mm 3 mps 756 mmHg 75%
    23:00 -2°C° 0 mm 3 mps 757 mmHg 74%

    19 January, Saturday

    Time Temperature Precipitation Wind Pressure Humidity
    00:00 -2°C° 0 mm 3 mps 757 mmHg 72%
    01:00 -2°C° 0 mm 3 mps 757 mmHg 70%
    02:00 -2°C° 0 mm 3 mps 757 mmHg 69%
    03:00 -2°C° 0 mm 3 mps 757 mmHg 68%
    04:00 -2°C° 0 mm 2 mps 756 mmHg 68%
    05:00 -2°C° 0 mm 2 mps 756 mmHg 67%
    06:00 -2°C° 0 mm 2 mps 756 mmHg 65%
    07:00 -3°C° 0 mm 2 mps 756 mmHg 64%
    08:00 -2°C° 0 mm 2 mps 756 mmHg 61%
    09:00 -1°C° 0 mm 2 mps 756 mmHg 57%
    10:00 -1°C° 0 mm 2 mps 756 mmHg 53%
    11:00 +1°C° 0 mm 2 mps 756 mmHg 49%
    12:00 +3°C° 0 mm 1 mps 756 mmHg 45%
    13:00 +3°C° 0 mm 1 mps 756 mmHg 41%
    14:00 +3°C° 0 mm 1 mps 755 mmHg 43%
    15:00 +2°C° 0 mm 1 mps 755 mmHg 46%
    16:00 +1°C° 0 mm 1 mps 755 mmHg 49%
    17:00 +1°C° 0 mm 1 mps 755 mmHg 51%
    18:00 0°C° 0 mm 1 mps 755 mmHg 53%
    19:00 -2°C° 0 mm 2 mps 755 mmHg 55%
    20:00 -2°C° 0 mm 2 mps 755 mmHg 56%
    21:00 -3°C° 0 mm 2 mps 755 mmHg 57%
    22:00 -3°C° 0 mm 2 mps 755 mmHg 59%
    23:00 -3°C° 0 mm 2 mps 755 mmHg 60%

    20 January, Sunday

    Time Temperature Precipitation Wind Pressure Humidity
    00:00 -1°C° 0 mm 1 mps 754 mmHg 61%
    01:00 -1°C° 0 mm 1 mps 754 mmHg 62%
    02:00 -1°C° 0 mm 1 mps 754 mmHg 64%
    03:00 -1°C° 0 mm 1 mps 754 mmHg 66%
    04:00 -2°C° 0 mm 1 mps 754 mmHg 67%
    05:00 -2°C° 0 mm 1 mps 754 mmHg 68%
    06:00 -2°C° 0 mm 1 mps 754 mmHg 69%
    07:00 -2°C° 0 mm 1 mps 754 mmHg 69%
    08:00 -1°C° 0 mm 1 mps 754 mmHg 66%
    09:00 -1°C° 0 mm 1 mps 754 mmHg 63%
    10:00 0°C° 0 mm 1 mps 755 mmHg 59%
    11:00 +1°C° 0 mm 1 mps 755 mmHg 55%
    12:00 0°C° 0 mm 0 mps 755 mmHg 51%
    13:00 +1°C° 0 mm 0 mps 755 mmHg 47%
    14:00 0°C° 0 mm 0 mps 755 mmHg 50%
    15:00 0°C° 0 mm 0 mps 755 mmHg 52%
    16:00 -1°C° 0 mm 0 mps 755 mmHg 54%
    17:00 -1°C° 0 mm 0 mps 755 mmHg 55%
    18:00 -1°C° 0 mm 1 mps 755 mmHg 56%
    19:00 -1°C° 0 mm 1 mps 756 mmHg 57%
    20:00 -1°C° 0 mm 1 mps 756 mmHg 58%
    21:00 -1°C° 0 mm 1 mps 756 mmHg 59%
    22:00 -1°C° 0 mm 1 mps 757 mmHg 59%
    23:00 -3°C° 0 mm 2 mps 757 mmHg 63%

    21 January, Monday

    Time Temperature Precipitation Wind Pressure Humidity
    00:00 -4°C° 0 mm 2 mps 757 mmHg 66%
    01:00 -4°C° 0 mm 2 mps 757 mmHg 70%
    02:00 -4°C° 0 mm 2 mps 757 mmHg 73%
    03:00 -4°C° 0 mm 2 mps 758 mmHg 77%
    04:00 -3°C° 0 mm 2 mps 758 mmHg 81%
    05:00 -4°C° 0 mm 2 mps 758 mmHg 85%
    06:00 -4°C° 0 mm 2 mps 759 mmHg 89%
    07:00 -4°C° 0 mm 2 mps 759 mmHg 93%
    08:00 -4°C° 0 mm 2 mps 760 mmHg 87%
    09:00 -3°C° 0 mm 2 mps 760 mmHg 81%
    10:00 -3°C° 0 mm 2 mps 761 mmHg 74%
    11:00 -2°C° 0 mm 2 mps 761 mmHg 68%
    12:00 -2°C° 0 mm 2 mps 761 mmHg 62%
    13:00 +1°C° 0 mm 1 mps 761 mmHg 56%
    14:00 0°C° 0 mm 1 mps 761 mmHg 57%
    15:00 0°C° 0 mm 1 mps 761 mmHg 59%
    16:00 -1°C° 0 mm 1 mps 761 mmHg 61%
    17:00 -1°C° 0 mm 1 mps 761 mmHg 63%
    18:00 -2°C° 0 mm 1 mps 761 mmHg 65%
    19:00 -4°C° 0 mm 2 mps 761 mmHg 67%
    20:00 -4°C° 0 mm 2 mps 761 mmHg 68%
    21:00 -4°C° 0 mm 2 mps 761 mmHg 69%
    22:00 -4°C° 0 mm 2 mps 761 mmHg 70%
    23:00 -4°C° 0 mm 2 mps 760 mmHg 72%
    Show more